RH
82 79 78 79 80 79 78 77 77 77 76 77 75 74 79 80 81 82 83 84 84 83 81 77 79 82 80 82 83 84 84 84 84 83 83 83 81 76 66 41 31 29 29 32 36 42 51 49 45 41 38 35 36 38 41 43 44 46 48 48 49 53 60 70 80 86 85 83 80 78 77 77 76 75 74 72 71 70 70 70 70 71 72 74 76 77 78 82 86 88 85 87 87 88 90 88 87 86 85 86 83 82 83
84 83 83 83 82 79 76 75 75 77 77 75 74 76 83 84 84 85 84 86 87 88 88 86 85 83 80 84 85 85 86 87 87 86 85 85 84 81 75 56 43 35 36 41 47 52 54 54 52 50 48 47 48 48 49 51 51 52 52 54 53 52 53 66 78 86 86 83 81 81 81 80 80 80 79 77 77 76 75 74 73 72 72 72 72 73 73 76 79 81 82 83 84 87 91 91 91 90 88 88 88 88 87
83 84 85 85 84 82 79 78 79 80 82 82 83 84 86 87 87 87 86 88 89 90 91 91 91 89 84 86 87 87 87 87 87 86 86 84 86 86 78 69 57 45 41 48 57 64 63 57 54 53 52 52 52 52 52 53 53 54 54 57 59 54 39 58 75 87 87 83 81 81 82 81 81 81 81 81 81 81 80 79 78 77 75 74 74 73 73 73 74 75 78 80 82 85 90 91 91 90 88 89 89 89 88
82 84 85 85 85 85 84 83 84 84 85 86 87 87 88 89 89 90 91 91 91 92 92 91 92 92 91 91 90 89 88 88 87 85 85 85 88 89 85 79 71 61 49 49 57 66 70 61 57 54 53 53 54 54 55 55 55 56 56 59 62 57 38 51 70 85 87 84 82 81 81 80 80 81 81 81 82 82 81 82 81 81 80 78 77 76 75 74 73 73 74 76 78 80 84 85 87 87 86 88 88 89 89
84 85 86 86 86 86 86 86 87 87 87 88 89 89 90 91 91 92 93 93 93 92 92 92 92 93 95 94 91 89 89 89 88 87 88 88 90 91 91 84 81 75 62 54 54 60 70 64 60 57 57 55 55 56 57 57 57 57 58 61 63 59 45 49 66 83 85 83 82 82 83 81 81 82 82 81 82 82 80 81 82 83 83 82 81 80 79 78 77 75 74 74 75 76 78 80 83 85 85 86 87 88 89
86 87 87 88 88 88 88 89 89 89 89 90 90 91 92 92 92 92 92 92 91 90 90 90 90 90 91 91 89 87 87 89 90 90 89 91 91 90 91 88 86 82 71 65 58 55 65 67 65 62 60 58 58 58 59 58 58 58 59 61 64 62 50 50 65 81 82 83 82 82 82 81 82 82 82 82 81 81 81 81 82 83 83 83 83 83 82 82 81 79 78 76 75 75 75 76 78 80 82 84 85 86 87
87 88 88 88 88 88 89 89 89 90 90 91 92 93 94 92 91 92 94 94 93 91 90 89 90 91 90 90 90 89 88 90 90 89 88 89 90 90 88 91 88 82 76 73 67 61 56 69 72 68 63 62 61 61 60 58 58 59 60 62 66 66 54 51 65 81 85 84 82 81 82 82 82 82 82 82 82 82 81 82 82 82 82 83 84 84 84 84 83 83 82 81 80 79 77 76 76 77 79 81 82 84 85
84 87 89 89 88 88 88 89 89 90 91 92 92 92 93 91 92 94 96 96 95 92 89 89 89 89 90 89 88 89 91 89 89 90 90 89 90 90 90 88 85 81 78 76 72 66 56 67 71 71 66 65 64 62 62 59 59 60 62 65 69 68 57 55 67 80 82 84 83 82 82 81 81 81 82 83 83 83 83 83 83 82 83 84 84 84 85 85 85 85 84 83 83 82 81 80 78 77 77 78 80 81 83
78 83 87 89 89 89 89 89 89 89 90 91 91 90 90 90 93 97 98 95 92 89 89 90 90 90 91 85 83 83 87 87 88 89 90 91 91 90 87 83 79 76 77 76 73 68 60 64 70 73 68 66 63 62 63 62 62 64 65 69 72 69 58 58 70 82 84 83 83 83 83 81 80 80 82 83 84 84 84 84 83 83 84 84 84 84 84 84 85 85 85 85 84 84 83 83 82 81 80 79 79 79 80
76 78 81 86 88 90 89 90 90 90 91 89 90 90 90 90 91 91 91 91 89 89 89 90 90 90 90 83 76 72 74 77 81 83 84 84 85 83 79 76 75 74 75 74 71 67 61 70 74 73 69 66 64 64 66 66 67 68 68 74 74 69 57 62 74 85 87 81 81 83 83 82 81 82 82 82 83 84 84 84 84 83 84 85 85 85 85 85 85 85 84 84 84 84 84 84 84 83 83 82 81 79 78
77 78 80 83 86 89 91 93 93 93 91 90 91 91 89 89 89 89 89 88 88 88 89 90 90 90 92 86 79 73 72 74 75 75 77 77 77 77 76 76 76 76 74 71 69 67 66 75 75 71 69 67 66 66 67 69 70 71 72 76 74 67 58 66 75 82 84 80 81 83 84 82 81 81 82 83 83 83 84 84 84 84 84 85 85 85 85 85 85 84 84 83 83 84 84 84 85 84 84 83 83 82 81
78 80 83 84 87 90 93 94 93 92 91 91 91 90 89 88 89 89 89 87 86 86 87 90 90 91 94 94 86 78 75 75 76 76 76 76 76 77 77 77 76 75 73 68 68 70 74 76 73 68 67 67 68 69 70 70 71 73 76 77 73 66 60 71 78 83 83 80 82 84 83 81 80 81 83 83 84 84 84 84 84 84 83 84 84 85 85 84 84 84 84 83 83 83 83 84 84 85 85 85 84 84 83
78 83 89 90 89 89 91 91 90 90 92 92 90 89 89 88 88 88 89 87 86 85 85 89 90 91 92 94 91 84 76 76 77 78 76 75 75 76 77 76 75 73 71 68 71 75 78 74 69 66 67 67 69 72 73 71 72 74 78 75 69 64 63 73 81 85 85 85 84 83 82 81 82 82 83 83 84 85 85 85 84 82 82 83 83 84 84 84 83 82 83 83 83 83 83 83 83 84 84 85 85 85 85
80 85 90 87 84 83 84 83 83 84 87 89 89 88 87 88 88 89 89 88 87 87 88 91 93 92 90 91 89 84 75 77 80 80 79 76 74 73 74 74 72 70 69 72 76 78 74 69 66 66 67 68 70 71 72 71 73 76 79 72 66 62 64 75 80 82 85 85 84 83 83 83 83 83 84 84 84 84 84 84 83 83 81 82 82 83 83 83 83 83 83 84 84 83 83 82 83 83 82 83 84 84 85
85 89 85 79 77 79 79 80 81 82 84 87 87 86 85 87 88 88 90 89 88 88 89 94 96 94 89 87 81 75 72 78 81 82 81 78 76 74 73 72 70 70 71 78 79 76 68 65 64 65 68 68 69 69 69 69 73 77 78 70 64 62 65 76 82 84 84 85 85 85 83 84 84 84 84 85 85 84 82 82 82 82 82 82 82 82 82 83 83 83 83 83 84 84 84 82 82 82 81 83 83 83 83
83 84 78 75 75 77 78 79 80 81 83 85 85 85 85 86 86 87 89 89 88 87 89 92 91 87 83 80 74 71 73 78 81 81 79 77 76 76 75 73 72 72 76 79 76 70 65 64 63 65 67 68 68 67 67 69 72 75 75 68 62 62 72 77 82 85 87 87 87 85 83 85 85 85 85 85 85 84 82 82 82 82 82 82 82 82 82 82 82 82 82 81 82 82 84 83 82 81 81 82 82 82 82
73 74 71 73 74 75 76 77 78 79 81 82 82 83 84 84 85 87 87 86 86 85 84 82 78 76 75 74 72 73 78 76 75 75 73 73 73 74 75 75 75 76 78 74 69 66 64 63 63 64 66 66 66 66 66 68 72 74 73 66 61 63 78 77 80 84 87 87 86 85 83 85 85 85 85 83 83 84 84 83 83 82 82 82 82 82 82 81 81 82 81 80 80 82 83 83 82 81 81 81 81 82 83
69 67 67 69 71 72 72 74 75 76 77 79 79 80 81 83 87 89 87 84 81 78 75 71 70 71 75 76 77 78 78 72 69 68 68 68 69 70 71 74 76 75 71 66 64 62 62 61 61 63 65 65 65 65 64 66 71 73 71 65 60 60 71 75 79 83 87 86 85 84 84 85 84 83 82 83 83 83 84 84 84 83 83 83 82 81 82 82 82 82 80 80 81 83 83 83 82 80 81 82 82 83 83
68 65 67 68 68 69 70 73 74 75 76 78 77 77 78 83 88 90 86 81 76 73 68 66 69 74 80 78 77 75 69 66 65 65 65 65 65 66 67 71 71 68 64 61 60 60 60 60 61 62 64 63 63 63 62 65 69 71 69 62 58 58 65 74 78 81 85 85 85 85 85 85 84 83 82 83 83 83 84 84 84 84 84 83 82 81 82 83 83 83 81 80 81 83 83 82 82 81 83 82 82 83 83
67 69 71 71 71 71 74 79 80 81 82 82 78 76 79 85 89 88 83 77 74 71 68 68 72 77 81 75 71 67 63 63 63 63 63 62 63 63 64 65 65 64 62 61 61 61 62 63 64 64 64 62 62 61 59 63 66 68 66 58 54 54 59 71 77 79 83 83 83 83 84 84 84 85 84 85 85 84 84 83 83 83 84 83 82 81 82 83 82 81 81 82 83 83 83 82 82 83 83 82 82 82 83
72 75 78 77 76 78 84 87 87 85 86 86 81 77 81 85 87 86 81 75 72 71 72 73 76 77 74 68 65 63 61 61 62 62 62 61 60 60 62 62 63 63 63 63 63 63 64 66 66 66 64 62 61 59 57 61 64 64 62 55 51 50 53 64 72 77 83 83 82 81 82 82 83 85 85 85 85 84 83 82 82 83 82 82 82 82 82 82 81 81 81 82 83 83 83 82 82 82 82 81 82 83 83
72 75 77 76 79 83 89 89 87 84 84 84 80 76 76 75 75 77 77 73 69 68 71 73 71 68 64 62 61 60 59 59 60 60 60 60 59 59 60 61 62 62 63 62 63 64 64 66 66 66 64 62 60 59 57 59 61 62 59 52 49 47 48 57 63 69 76 81 82 80 79 80 82 83 84 85 85 85 82 83 83 83 81 82 82 82 81 81 81 82 81 82 82 83 82 81 81 81 82 82 82 82 82
69 70 71 73 77 83 87 83 82 81 81 80 79 76 71 68 66 65 67 68 67 65 66 65 62 60 60 59 58 57 56 57 58 59 59 60 59 59 59 59 60 60 60 61 62 63 64 65 65 64 63 61 59 58 57 58 59 60 57 51 47 45 45 50 56 63 72 77 78 78 82 83 82 82 83 84 85 86 86 86 85 83 82 83 83 83 81 82 82 82 82 83 83 83 81 82 83 83 82 83 83 83 83
69 70 72 78 81 84 86 81 81 82 81 78 76 74 69 65 62 61 62 65 65 64 62 59 57 56 57 56 55 55 56 57 56 56 57 58 58 58 58 57 56 56 57 58 59 60 62 63 63 62 61 59 57 56 55 57 58 58 55 49 45 43 42 44 54 64 68 70 72 75 83 84 83 81 80 83 84 86 88 87 86 84 84 84 83 83 83 83 82 83 83 83 83 82 82 83 84 84 83 83 84 84 83
72 75 78 82 83 83 84 83 83 83 81 78 75 72 68 63 62 62 62 64 64 62 59 56 55 55 55 55 54 54 55 55 55 55 55 56 56 56 55 54 53 53 53 54 55 57 59 59 59 59 58 55 54 54 53 56 58 57 53 48 43 41 40 41 46 51 50 57 63 69 75 80 83 84 82 80 80 82 85 84 83 83 83 83 83 83 83 83 82 82 83 82 82 83 83 83 84 84 82 82 83 83 82
76 78 78 77 78 81 85 87 85 82 77 76 74 70 66 63 61 61 61 62 61 59 58 56 54 54 55 56 55 53 53 54 55 54 54 54 55 54 53 52 51 50 49 50 52 54 55 55 55 55 54 52 51 51 52 54 56 56 52 46 41 39 38 39 41 42 42 45 55 66 72 74 76 78 79 79 80 81 83 82 81 81 81 81 81 82 83 83 82 82 82 82 82 83 82 83 83 83 82 82 83 82 82
76 74 71 74 78 82 87 85 81 76 72 75 74 71 66 62 60 60 60 59 58 58 56 55 55 55 56 57 55 53 53 54 53 52 51 52 53 53 53 52 50 48 47 48 49 50 51 51 51 50 49 47 48 49 50 52 56 56 51 45 40 38 37 37 38 39 40 41 52 66 75 74 74 75 78 80 81 82 80 79 78 78 78 78 79 80 80 80 80 80 81 81 82 82 82 83 83 82 82 81 81 82 82
72 69 71 78 82 83 82 77 75 74 74 73 72 69 66 62 60 59 59 58 57 57 55 54 55 56 58 58 56 53 52 52 51 50 50 51 52 53 52 51 50 48 45 46 46 46 46 46 46 46 44 44 45 46 48 51 55 57 52 45 40 37 36 36 36 37 38 40 50 62 68 71 73 75 77 80 78 76 81 82 81 79 75 75 77 80 79 79 79 79 80 80 80 81 81 81 81 81 80 80 81 82 82
71 70 75 81 80 76 72 72 72 73 73 71 68 66 62 63 63 61 60 59 59 58 57 54 54 55 56 55 54 53 52 50 49 47 48 49 50 50 50 49 47 46 45 44 43 43 43 44 44 44 43 43 43 44 46 49 52 55 53 46 41 38 36 35 34 35 36 37 44 53 63 67 70 72 75 77 76 76 84 85 85 83 80 81 81 81 81 80 80 80 80 80 80 81 82 82 81 81 80 81 81 82 82
75 76 77 73 70 67 67 71 71 70 72 70 67 65 62 64 63 62 60 58 57 55 53 51 49 49 51 51 50 50 50 49 48 47 48 47 47 47 47 46 45 43 42 42 43 44 44 45 45 45 44 43 43 43 44 46 49 52 54 48 43 39 36 34 33 34 36 38 39 41 49 59 66 69 70 77 83 86 86 86 83 80 80 83 83 82 81 82 82 81 79 79 81 82 83 82 82 83 82 81 81 82 82
75 75 73 67 65 66 69 68 67 67 71 68 66 65 64 63 62 61 60 58 55 52 49 47 46 46 47 47 48 48 49 48 47 46 45 46 46 46 45 44 42 41 42 43 44 45 46 46 46 45 45 44 43 42 42 44 47 51 55 52 47 41 35 34 34 35 36 37 37 39 45 53 60 66 70 78 82 84 86 87 81 77 82 83 81 80 82 83 83 81 79 80 80 80 81 81 81 81 81 82 83 84 84
71 70 70 66 65 66 68 67 66 66 69 69 68 66 65 64 62 59 57 55 52 50 48 46 45 44 44 44 44 46 49 49 49 47 46 46 46 45 43 42 41 41 42 43 44 43 43 45 45 44 43 42 41 41 41 43 47 51 55 56 50 42 36 35 36 37 38 38 39 38 37 43 51 59 66 70 74 79 85 86 83 80 82 83 84 84 81 82 83 82 80 80 80 80 81 83 83 83 82 81 83 84 84
69 68 67 65 65 66 67 65 64 65 70 69 69 68 66 64 60 57 53 51 50 49 48 46 44 43 44 43 44 46 49 50 49 47 46 46 46 45 44 43 42 41 43 43 42 41 41 42 43 42 40 40 39 39 40 42 45 50 53 56 52 45 38 38 38 39 39 39 39 39 39 39 43 49 56 63 69 76 83 85 86 85 82 84 84 83 82 82 82 81 80 81 82 82 82 82 82 81 82 81 81 81 82
68 66 65 63 64 65 64 63 66 68 70 68 67 65 63 60 57 53 49 47 47 48 48 45 44 44 45 45 45 47 49 48 47 46 46 45 44 44 44 43 43 42 43 42 41 40 41 41 41 40 39 39 38 38 39 42 46 50 53 56 55 50 41 40 40 40 40 40 40 40 40 39 39 41 46 52 60 69 77 82 83 84 85 84 84 84 84 85 84 83 81 81 81 81 81 82 82 81 81 81 81 81 80
66 64 61 63 64 64 65 64 66 67 67 66 65 64 60 56 52 48 45 44 44 45 43 43 43 44 45 45 45 45 46 45 45 44 43 42 41 42 43 43 43 43 42 41 40 40 40 40 40 40 39 38 38 39 40 43 48 52 55 58 58 54 45 42 41 41 40 40 39 39 39 39 39 39 39 43 49 57 68 75 79 81 80 79 80 81 82 82 82 82 82 82 81 80 81 81 81 81 81 81 80 79 78
66 64 63 62 62 62 63 65 66 65 65 64 61 58 57 51 46 42 43 43 43 42 40 42 44 45 46 46 45 44 44 45 44 43 42 41 41 41 42 41 41 41 42 41 41 40 40 41 41 40 39 39 39 40 42 45 49 52 55 58 60 59 52 50 48 47 44 41 40 38 37 37 37 38 39 39 42 46 51 61 68 72 72 73 75 76 78 79 80 81 81 81 80 79 79 79 79 79 80 79 78 78 78
68 66 65 62 60 61 65 66 65 64 63 60 53 48 50 45 41 40 41 42 42 41 40 41 43 46 48 48 46 45 45 46 46 45 42 41 41 40 39 39 39 40 41 41 41 41 42 41 41 40 39 40 41 42 44 47 49 51 55 58 60 62 61 61 60 58 55 50 45 41 37 35 35 37 38 39 40 40 41 44 49 54 57 61 65 70 74 77 78 79 81 80 80 79 79 79 78 78 79 79 79 80 79
67 65 65 62 60 60 64 65 63 61 58 54 46 40 43 42 41 41 41 42 43 42 41 41 42 43 46 46 45 44 45 46 46 45 44 43 41 39 37 37 38 39 40 41 41 42 43 41 40 40 40 40 41 43 45 48 49 50 53 56 58 60 61 61 60 59 61 58 54 48 41 37 35 36 38 39 40 40 40 40 39 39 39 41 47 55 63 70 75 78 81 81 80 79 79 78 77 77 78 78 78 78 78
65 63 66 62 60 61 64 64 61 57 52 48 42 38 40 42 43 42 41 43 44 44 41 41 40 40 40 40 40 41 42 43 44 44 43 42 40 38 37 38 38 39 39 40 41 41 41 40 40 39 40 40 42 44 46 48 48 49 50 53 54 56 57 57 55 54 56 57 57 55 46 40 37 38 39 39 40 41 41 41 40 39 39 38 37 39 43 54 64 73 79 77 77 77 77 76 76 76 76 75 74 75 75
64 63 66 62 62 64 65 61 58 53 46 43 39 37 40 42 42 41 40 41 44 46 45 43 41 40 37 37 38 39 39 40 41 41 41 39 37 37 37 39 39 39 39 39 40 39 39 38 39 39 41 41 43 46 48 49 49 50 50 51 52 52 54 51 50 50 51 51 53 53 50 42 39 38 39 39 39 39 39 39 39 39 39 39 39 38 37 40 48 58 70 72 74 75 74 74 74 74 73 72 72 72 72
65 66 66 63 63 64 62 58 53 47 41 40 38 38 41 42 41 39 38 39 43 47 49 47 45 42 39 39 38 38 38 39 39 39 38 37 36 36 38 39 40 40 39 39 39 38 37 37 38 40 42 44 46 47 49 50 50 51 51 51 51 51 51 45 45 46 47 46 45 46 50 43 39 35 35 34 34 34 34 35 35 35 36 36 36 36 36 36 39 44 55 62 67 70 71 71 72 72 71 70 70 71 71
66 66 66 64 64 62 58 54 48 42 38 38 39 40 43 41 39 37 35 37 41 45 50 50 48 45 43 41 40 39 37 38 38 38 37 36 36 37 39 40 40 40 39 39 38 37 35 36 37 40 43 45 47 48 49 50 50 51 53 51 51 51 52 49 47 45 43 39 37 38 44 41 36 32 29 28 29 29 29 29 30 30 31 31 31 31 31 32 33 35 40 47 52 58 63 67 69 69 69 69 69 70 71
66 66 65 64 62 58 53 49 43 37 34 35 38 41 44 42 40 38 38 37 40 43 47 50 50 48 47 44 42 40 39 39 38 38 37 36 36 38 40 41 41 40 39 38 37 36 34 35 37 40 44 46 47 47 47 49 50 51 53 51 50 51 53 52 50 46 42 38 36 37 42 41 36 32 30 31 32 33 33 33 32 31 29 27 26 26 26 27 28 29 31 35 40 45 50 56 62 66 67 68 70 71 72
66 65 64 63 60 54 48 43 38 33 31 34 39 44 45 44 44 44 45 43 44 46 45 48 50 50 50 49 47 44 42 41 41 40 38 37 37 39 41 42 41 39 37 36 36 35 34 34 36 40 44 46 47 47 47 49 50 50 51 49 47 46 49 49 49 49 50 46 44 45 49 45 42 40 41 44 46 47 48 47 45 42 37 33 31 30 29 30 30 31 32 34 37 40 44 48 56 64 70 71 72 72 73
65 65 63 62 58 51 45 40 35 31 31 35 41 45 46 46 47 48 50 50 50 49 47 46 47 49 50 51 50 49 47 45 44 42 40 39 40 41 42 41 39 36 34 34 35 35 34 33 35 39 43 46 47 47 48 47 46 45 43 42 40 39 42 43 45 49 56 55 55 55 55 50 49 50 53 54 55 55 55 55 55 54 50 48 45 43 42 42 42 42 43 44 45 47 50 56 63 70 75 76 75 74 75
65 64 62 60 56 50 44 38 33 31 31 37 42 46 47 47 48 49 50 50 49 48 47 46 45 44 44 45 46 48 49 48 46 43 40 41 41 41 39 37 34 33 32 32 33 35 35 33 34 37 42 45 45 45 45 44 42 40 37 36 35 36 38 40 44 50 58 56 57 57 55 52 52 54 56 54 52 51 51 52 54 56 57 57 57 57 58 58 57 57 58 58 59 60 64 69 74 77 78 77 76 76 77
64 63 60 58 54 49 43 37 33 31 33 40 45 46 44 46 47 47 47 45 45 45 45 45 45 45 43 40 38 40 45 47 45 42 40 41 39 36 33 31 31 30 31 31 33 34 36 34 34 36 41 43 43 42 40 39 38 37 35 34 35 36 39 42 47 52 56 54 52 51 49 48 50 54 54 50 49 48 48 50 51 53 55 56 58 60 62 63 64 65 66 68 69 70 73 75 77 78 76 76 76 76 77
64 61 58 56 53 48 42 36 33 33 36 44 46 45 44 46 46 45 44 43 44 45 45 46 47 47 45 40 36 35 40 44 43 41 41 39 34 29 27 28 28 29 29 29 31 33 35 34 33 34 38 38 39 38 36 35 35 35 35 35 36 37 38 41 44 47 51 51 50 47 44 46 50 54 53 51 49 48 48 50 50 51 53 54 57 59 61 62 63 64 66 68 70 72 73 74 73 72 72 73 74 75 76
63 60 57 54 52 48 41 36 34 34 40 46 48 46 45 43 43 44 44 45 47 47 47 48 49 48 47 41 37 37 40 44 44 42 40 35 30 27 26 27 27 27 26 25 26 29 33 33 33 34 35 36 37 36 35 34 34 34 34 36 37 38 38 38 40 42 46 48 48 47 45 50 53 55 54 52 52 51 51 51 51 52 53 55 56 58 58 59 60 61 63 65 67 69 71 72 72 72 71 72 74 75 76
63 59 55 53 51 47 40 38 36 37 43 45 43 41 39 38 39 42 45 47 48 48 47 44 44 44 46 42 40 40 45 49 47 43 37 33 31 30 29 27 25 24 21 20 21 24 30 32 33 34 36 37 36 34 33 33 33 34 35 36 38 39 39 38 39 41 44 46 47 48 49 51 53 54 53 53 53 53 53 53 53 53 53 54 54 54 54 55 56 58 61 64 67 69 71 72 74 74 73 73 74 75 76
63 58 54 50 49 46 41 41 39 38 41 40 40 40 40 41 43 45 45 46 46 47 46 43 40 38 40 40 39 41 47 50 49 44 39 37 35 34 32 28 25 21 18 17 19 23 31 32 33 34 36 34 31 29 28 30 31 33 34 36 38 39 39 38 39 41 43 46 47 48 49 49 50 50 51 51 52 53 53 54 53 53 53 53 52 52 52 53 55 57 60 63 66 69 71 73 74 74 73 74 75 76 76
63 57 52 47 46 47 44 43 40 38 38 37 39 42 42 45 48 48 46 46 46 46 47 46 42 39 36 35 34 36 43 49 49 46 44 42 39 35 30 27 24 22 19 18 20 25 38 40 42 41 37 28 24 23 25 28 30 32 34 37 39 39 38 38 39 41 43 44 45 45 45 46 46 47 49 50 51 51 51 52 52 52 51 51 52 52 52 53 55 57 59 62 65 68 70 72 74 74 74 74 75 76 77
62 56 49 44 45 45 43 40 39 38 37 38 42 46 47 48 49 48 47 47 47 47 48 48 46 43 37 33 30 29 31 44 48 49 49 46 41 35 27 27 26 25 24 21 20 21 24 23 21 18 17 18 20 23 25 27 29 31 34 37 39 39 38 38 39 41 42 41 41 42 42 43 44 46 47 49 50 50 51 51 51 51 51 51 52 53 53 54 55 57 59 60 62 65 67 70 72 74 75 75 76 76 77
61 54 47 43 42 41 38 36 37 37 37 38 41 46 47 47 47 46 44 44 44 44 45 46 45 43 39 34 32 29 26 38 46 51 51 47 43 38 33 32 30 28 23 21 18 15 13 15 18 21 22 22 22 23 24 25 26 28 31 35 36 36 36 37 39 40 40 40 40 41 42 43 44 46 47 49 50 50 50 50 51 51 51 52 53 54 54 54 55 56 57 58 59 61 63 66 70 73 75 75 75 75 75
59 51 45 42 39 36 34 35 36 36 36 37 38 40 44 42 41 41 40 41 41 42 42 41 41 41 41 38 34 31 28 29 40 51 53 48 45 42 42 40 35 29 21 19 17 16 16 20 23 25 24 21 20 20 20 21 23 25 28 31 33 34 35 36 38 39 40 40 41 42 43 44 45 46 47 48 49 50 50 50 50 51 52 54 55 56 54 54 54 54 55 55 56 58 60 64 67 70 72 72 72 71 73
57 49 44 40 37 35 35 36 36 36 37 37 37 37 38 37 37 37 38 40 41 41 38 36 39 43 45 41 37 33 32 28 36 47 51 48 46 45 46 46 42 36 28 23 21 22 24 28 30 29 24 21 21 21 21 23 25 27 29 30 31 32 33 34 36 38 40 41 41 42 44 45 46 47 47 48 49 49 49 49 50 51 52 54 55 55 55 53 53 52 53 54 55 57 59 62 65 68 69 70 70 71 70
53 46 42 38 36 35 36 36 37 37 37 37 36 35 34 33 34 36 38 41 42 39 31 31 36 43 45 40 37 36 34 30 29 32 42 45 46 48 49 47 46 45 41 36 34 35 35 37 36 32 25 23 23 23 24 25 27 28 28 28 28 28 29 30 32 34 36 38 40 41 43 45 46 46 47 48 48 48 48 49 50 50 51 52 53 53 54 54 53 53 53 53 54 56 58 61 64 66 68 70 71 71 70
50 42 39 37 36 36 37 37 37 38 37 36 35 34 32 33 36 38 38 40 38 33 27 31 36 39 39 34 35 37 36 32 30 30 34 39 46 52 53 51 48 46 44 44 45 46 46 44 41 37 32 29 27 26 27 28 28 28 28 28 28 28 29 30 31 32 34 35 37 40 42 43 44 45 46 46 47 47 47 48 49 49 50 50 51 52 53 54 55 55 55 55 56 57 59 61 63 66 68 70 70 70 69
46 40 36 36 36 37 38 39 39 38 37 36 34 33 33 35 36 35 31 32 30 27 24 30 33 34 32 31 34 37 36 32 31 32 36 35 41 48 50 49 47 46 46 45 45 46 47 47 46 43 41 36 33 32 31 31 31 31 31 30 30 30 31 32 32 33 34 35 36 38 39 39 40 41 42 43 44 45 45 46 47 48 49 50 52 53 54 55 55 56 57 57 58 59 59 61 64 67 70 73 73 71 69
43 37 35 36 37 39 40 40 40 38 37 35 33 32 33 34 32 28 25 28 28 27 26 28 31 32 32 30 33 37 38 35 34 35 37 36 34 34 35 36 37 37 39 42 44 45 46 47 49 50 49 45 42 39 36 35 33 33 32 31 31 31 32 32 33 33 34 35 35 36 36 36 37 37 38 39 41 41 43 44 46 48 50 51 52 53 54 54 55 55 55 56 57 57 58 61 65 69 71 74 74 72 69
40 36 35 37 39 40 41 41 40 38 35 33 31 30 30 28 25 24 27 30 32 32 31 32 35 37 38 35 33 34 38 39 39 38 38 38 35 33 33 33 33 33 36 38 41 43 45 46 47 48 51 52 49 44 41 38 36 33 31 31 31 32 32 32 33 33 33 34 34 34 34 35 35 35 36 36 37 38 40 42 44 46 47 48 49 50 51 52 52 53 53 54 55 56 57 61 66 70 72 74 74 72 70
Wind_Speed
12 12 12 12 12 12 12 12 12 12 12 12 12 12 12 12 13 12 12 12 12 12 12 12 12 11 11 11 11 11 11 10 10 10 11 11 11 11 11 11 10 10 11 11 12 13 12 8 7 7 7 8 8 8 7 8 8 8 7 7 7 6 6 8 9 11 10 10 9 9 9 8 8 7 7 7 7 7 7 7 7 7 7 7 8 8 8 7 7 7 8 8 8 7 7 8 8 8 8 8 8 8 8
11 11 11 11 11 11 11 11 11 11 11 12 12 12 12 12 12 12 12 12 12 11 11 11 11 11 11 11 10 10 10 10 10 10 10 10 10 10 10 10 10 9 9 10 11 12 11 8 6 6 6 6 6 6 6 6 6 7 7 7 6 5 5 7 9 10 10 9 9 9 9 9 8 8 7 7 7 7 7 7 7 7 7 7 7 7 7 7 7 7 7 7 7 7 7 7 7 7 7 8 8 8 8
11 11 11 11 11 11 11 11 11 11 11 11 11 11 11 11 11 11 11 11 11 11 11 10 10 10 10 10 10 10 10 10 10 10 10 10 10 10 10 10 10 9 8 8 9 10 10 8 6 6 6 6 5 5 5 5 6 6 6 6 6 5 4 6 8 10 10 9 9 9 9 9 8 8 8 7 7 7 7 6 6 6 6 7 7 7 7 7 7 7 7 7 7 7 7 7 7 7 7 7 7 7 7
11 11 11 11 11 11 11 11 11 10 10 10 10 10 10 10 10 9 9 9 9 10 10 10 9 9 9 9 9 9 9 9 9 9 9 9 9 9 10 10 10 10 8 7 7 8 8 7 6 6 6 6 5 5 5 5 5 5 5 5 6 5 3 4 7 9 9 9 8 8 8 8 8 8 8 8 8 8 7 7 7 7 6 6 6 7 7 7 7 7 7 7 7 7 7 7 7 7 7 7 7 7 7
11 10 10 10 10 10 10 10 10 10 10 9 9 9 9 9 8 8 8 8 8 9 9 9 9 8 8 9 9 9 9 9 9 9 9 9 9 9 9 10 10 10 9 7 6 6 7 7 6 6 6 6 6 6 5 5 5 5 5 5 6 6 4 4 6 8 9 9 8 8 8 8 8 8 8 8 8 8 8 8 7 7 7 7 7 7 6 6 6 7 7 7 7 7 7 7 7 7 7 7 7 7 7
10 10 10 10 10 10 9 9 9 9 8 8 8 8 7 8 8 7 7 7 8 8 8 8 8 8 9 9 9 8 8 8 8 8 8 8 9 9 9 9 10 10 10 8 6 5 7 7 7 6 6 6 6 6 6 5 5 5 5 5 6 6 6 4 6 8 8 9 9 8 8 8 8 8 8 8 8 8 8 8 8 8 8 7 7 7 7 7 7 7 7 7 7 7 7 7 7 7 7 7 7 7 7
10 10 9 9 9 8 8 8 8 8 7 7 7 7 7 7 7 7 7 7 7 8 8 8 8 8 9 9 8 8 8 8 8 8 8 8 8 9 9 9 9 9 10 10 8 6 6 7 7 7 6 6 6 6 6 6 5 5 5 5 6 7 6 5 6 8 8 9 9 8 8 8 9 8 8 8 8 8 8 8 8 8 8 8 8 7 7 7 7 7 7 7 7 7 7 7 7 7 7 7 7 7 7
9 9 9 8 8 8 7 7 7 7 6 6 7 7 7 7 7 7 7 7 7 7 7 7 7 8 8 8 8 8 8 8 8 8 8 8 8 8 8 9 9 9 9 10 9 8 6 6 7 7 7 6 6 6 6 6 6 5 5 5 6 7 7 6 7 8 8 9 9 9 9 9 9 9 9 9 8 8 8 8 8 8 8 8 8 8 8 8 8 7 7 7 7 7 7 7 7 7 7 7 7 7 7
10 9 9 8 8 7 7 7 6 6 6 6 7 7 7 7 7 7 7 7 7 7 6 6 6 7 7 7 7 7 7 7 7 7 7 7 8 8 8 8 8 8 9 9 9 9 7 6 7 7 7 7 7 7 7 6 6 6 5 6 7 8 8 7 7 8 9 9 9 9 9 9 9 9 9 9 9 9 9 9 9 9 9 9 9 8 8 8 8 8 8 8 8 7 7 7 7 7 7 7 7 7 7
9 10 10 9 8 7 7 6 6 6 6 6 6 6 6 6 7 7 7 7 7 6 6 6 6 6 6 6 6 6 6 6 6 6 6 7 7 7 7 8 8 9 9 9 9 9 8 7 7 7 7 7 7 7 7 6 6 6 6 6 7 9 8 7 8 9 9 9 9 9 10 9 9 9 9 9 9 9 9 9 9 9 9 9 9 9 9 9 9 9 9 8 8 8 8 8 8 8 8 7 8 8 8
8 9 9 9 9 7 6 5 5 5 5 5 5 5 6 6 6 6 6 6 6 6 6 6 5 5 5 5 6 7 7 7 7 7 7 7 7 7 8 8 8 9 9 9 9 9 8 7 7 7 7 7 7 7 7 6 6 5 5 6 9 10 9 8 8 9 9 9 10 10 10 10 10 10 10 10 10 10 10 10 10 9 9 9 9 9 9 9 9 9 9 9 9 9 9 8 8 8 8 8 8 8 8
7 8 8 8 7 7 6 5 4 4 4 4 4 5 5 5 5 6 6 6 5 5 5 5 5 5 5 6 6 7 7 8 8 8 8 8 8 8 8 8 9 9 9 9 9 8 8 7 7 7 7 7 7 7 6 6 5 5 5 7 10 11 9 8 8 9 10 10 10 10 10 10 10 10 10 10 10 10 10 10 10 10 10 10 10 9 9 10 10 10 10 10 9 9 9 9 9 9 9 9 9 9 9
6 6 6 5 5 5 5 3 3 3 3 4 4 4 4 4 4 5 5 6 5 5 5 5 5 5 6 7 7 7 8 9 9 9 9 9 9 9 9 9 10 10 10 10 9 8 7 7 7 7 7 7 7 7 6 6 5 5 6 9 11 11 10 9 9 9 10 10 10 11 11 11 11 11 11 11 11 11 11 11 11 11 11 10 10 10 10 10 10 10 10 10 10 10 10 10 10 10 10 9 9 9 9
5 5 4 3 3 3 3 3 3 3 3 3 3 3 4 4 4 4 5 5 5 5 5 5 5 6 7 8 9 8 9 9 9 9 9 10 10 10 11 11 12 12 11 9 8 7 7 7 7 7 7 7 7 7 7 6 5 5 7 10 12 12 10 9 9 10 10 11 11 11 11 11 12 12 12 12 12 12 11 11 11 11 11 11 11 11 11 11 11 11 11 11 10 10 10 10 10 10 10 10 10 10 10
4 4 3 2 2 2 2 2 2 2 3 3 3 4 3 3 4 4 4 5 6 6 7 7 7 7 7 9 10 10 9 9 9 9 9 11 12 12 12 13 13 12 11 9 8 7 7 7 8 8 7 7 8 7 7 6 5 6 9 12 13 12 10 10 10 10 11 11 11 12 12 12 12 12 12 12 12 12 12 12 12 12 12 12 12 11 11 11 11 11 11 11 11 11 11 11 11 11 11 11 11 11 11
4 4 3 2 1 1 1 1 1 1 2 3 4 4 3 3 4 5 5 6 6 7 8 8 9 9 9 9 10 9 9 9 9 9 10 11 12 13 13 14 13 12 9 8 7 7 8 8 8 8 7 8 8 8 7 6 6 8 12 14 14 13 11 10 10 11 11 12 12 12 12 13 13 13 13 13 13 13 13 13 12 12 12 12 12 12 12 12 12 12 12 12 12 11 11 11 11 11 11 11 12 11 11
4 3 2 1 1 0 0 1 1 2 3 4 5 5 4 4 4 5 6 6 7 7 8 9 9 10 10 10 10 9 9 9 8 8 10 11 12 13 13 13 12 10 8 7 7 8 8 9 9 8 8 8 8 8 8 7 7 10 13 15 15 14 11 11 11 11 12 12 12 12 13 13 13 13 13 13 13 13 13 13 13 13 13 13 13 12 12 12 12 12 12 12 12 12 12 12 12 12 12 12 12 12 12
3 2 1 0 0 1 2 2 3 3 4 5 6 7 6 5 5 5 5 6 7 8 8 9 9 9 9 9 9 9 8 7 7 7 8 9 11 12 12 11 9 8 7 8 8 8 9 9 9 8 8 9 9 9 8 8 8 11 14 15 16 15 12 11 11 11 12 12 12 13 13 13 13 13 13 13 13 13 13 13 13 13 13 13 13 13 13 13 13 13 13 13 13 12 12 12 12 12 12 12 12 13 13
2 0 1 1 2 2 3 3 4 5 5 6 7 7 7 6 5 5 5 6 7 8 9 9 8 8 8 8 8 8 7 7 7 7 7 7 8 9 10 8 7 7 8 8 8 9 9 9 9 8 9 9 9 9 9 8 9 12 14 16 16 15 13 11 11 12 12 12 13 13 13 13 13 13 13 13 13 13 13 13 13 13 13 13 13 13 13 13 13 13 13 13 13 13 13 13 13 13 13 13 13 13 13
3 2 2 3 3 3 3 3 4 5 6 6 7 8 7 6 5 5 6 8 8 9 10 10 9 7 6 7 7 7 7 7 7 7 7 7 7 7 7 7 7 8 8 8 8 8 8 8 8 9 9 9 9 9 9 8 10 13 15 16 17 16 14 12 11 12 12 12 13 13 13 13 13 13 13 13 13 13 13 13 13 13 13 13 13 13 13 14 14 13 14 13 13 13 13 13 13 13 13 13 13 13 13
4 4 4 4 3 2 2 2 3 4 6 7 8 8 7 5 5 5 7 8 8 8 9 10 9 6 5 6 7 7 7 7 7 7 7 7 7 7 7 8 8 8 8 8 8 8 8 8 8 9 9 9 9 9 9 8 11 14 16 17 17 16 15 13 12 12 12 12 13 13 13 13 13 13 13 13 13 13 13 13 13 13 13 13 13 13 14 14 14 14 14 14 14 14 14 14 14 14 13 14 14 14 14
5 5 4 3 2 1 1 1 3 4 5 7 8 7 6 4 3 4 5 5 6 7 8 9 7 5 5 6 7 7 7 7 7 7 8 8 8 8 8 8 8 8 8 9 9 9 9 8 9 9 9 9 9 9 9 9 12 15 17 17 17 17 16 14 13 12 12 12 12 13 13 13 13 13 13 13 13 13 13 13 13 13 13 13 13 14 14 14 14 14 14 14 14 14 14 14 14 14 14 14 14 14 14
4 3 2 1 0 0 2 3 4 5 5 5 5 5 5 4 4 4 4 5 6 7 7 7 6 5 5 6 7 8 8 8 8 8 8 8 8 8 8 9 9 9 9 9 9 9 9 9 9 9 9 9 9 9 9 10 13 16 17 18 18 17 16 15 14 13 12 12 12 12 12 12 13 13 13 13 13 13 13 13 13 13 13 13 13 13 13 14 14 14 14 14 14 14 14 14 14 14 14 14 14 14 14
3 2 1 2 3 3 5 6 6 5 4 4 4 5 5 5 4 5 5 5 6 6 7 6 6 6 6 7 8 8 8 9 9 9 9 9 9 9 9 9 9 9 10 9 9 9 9 9 9 9 9 10 10 9 9 10 13 16 18 18 18 17 16 15 14 13 13 12 12 12 12 12 12 12 12 12 13 13 13 13 13 13 13 13 13 14 14 14 14 14 14 14 14 14 14 14 14 14 14 14 14 14 14
2 1 2 5 6 8 8 7 5 3 3 3 4 5 5 5 5 5 5 5 6 6 6 7 7 7 7 8 9 9 9 9 9 9 9 9 9 10 10 10 10 10 10 10 10 9 9 9 9 10 10 10 10 10 9 10 13 17 18 18 17 17 16 16 15 14 14 13 13 12 12 12 12 12 12 12 12 13 13 13 13 13 13 13 14 14 14 14 14 14 14 14 14 14 14 14 14 14 14 14 14 14 14
1 2 5 8 9 8 6 4 3 2 2 3 3 4 4 4 5 5 5 5 5 6 6 7 7 8 8 9 9 9 9 9 9 9 9 9 10 10 10 10 10 10 10 10 10 10 9 9 10 10 10 10 10 10 9 10 13 16 17 18 17 17 16 15 15 15 15 14 13 12 12 12 12 12 12 12 12 12 13 13 13 13 13 13 13 14 14 14 14 14 14 14 14 14 14 14 14 14 14 14 14 14 14
2 5 7 7 5 3 1 2 2 2 2 2 2 3 4 4 4 5 5 5 6 6 7 7 8 8 8 9 9 10 9 9 9 9 10 10 10 10 10 10 10 10 10 10 10 10 10 10 10 10 10 10 10 10 10 9 12 15 17 18 17 17 16 15 15 15 15 14 13 12 12 11 11 12 12 12 12 12 12 12 12 13 13 13 13 13 13 14 14 14 14 14 14 14 14 14 14 14 14 14 14 14 14
4 6 5 3 1 1 2 3 2 1 1 2 2 2 3 4 5 5 5 6 6 6 7 7 7 8 8 8 9 9 9 9 9 9 10 10 9 9 9 10 10 10 10 10 10 10 10 10 10 10 11 10 10 10 10 9 11 14 17 18 18 17 16 16 15 15 15 14 13 12 11 11 11 11 11 11 11 11 11 12 12 12 12 12 13 13 13 13 13 13 14 14 14 14 14 14 14 14 14 14 14 14 14
4 3 1 2 3 3 3 2 1 0 1 2 2 3 3 3 4 5 5 6 6 6 7 7 7 7 8 8 8 8 8 9 9 9 9 9 9 9 9 10 10 10 10 10 10 10 10 10 10 11 11 10 10 10 10 9 10 13 16 18 18 17 17 16 15 15 14 13 12 11 10 10 10 10 10 10 11 11 11 11 11 11 12 12 12 12 12 12 13 13 13 13 13 13 14 13 14 14 14 14 14 14 14
3 2 3 3 3 3 3 2 1 0 1 2 2 3 3 3 4 5 5 5 6 6 6 7 7 7 7 8 8 8 8 8 9 9 9 9 9 9 9 10 10 10 10 10 10 10 10 10 10 11 11 10 10 10 9 9 9 11 15 17 18 17 17 16 15 14 13 12 11 10 9 9 9 9 9 9 10 10 10 10 10 11 11 11 11 11 12 12 12 12 12 12 13 13 13 13 13 13 13 13 13 14 13
3 3 4 3 2 2 2 1 1 0 0 1 2 3 3 3 4 4 5 5 5 6 6 6 6 7 7 7 7 7 7 8 8 9 9 9 9 9 9 10 10 10 10 10 10 10 10 10 11 11 11 10 10 10 10 9 9 10 13 16 17 17 17 16 14 12 11 9 8 8 7 7 8 8 8 8 9 9 10 10 10 10 10 10 11 11 11 11 11 11 11 12 12 12 12 12 12 13 13 13 13 13 13
2 2 3 3 2 2 2 1 1 1 0 1 2 3 3 3 4 4 4 4 5 5 5 5 6 6 7 7 7 7 7 8 8 9 9 9 9 9 9 10 10 10 10 10 10 10 10 11 11 11 11 11 11 10 10 9 8 8 10 13 16 17 17 15 12 10 8 7 7 7 6 6 7 7 8 8 8 9 9 9 9 9 9 10 10 10 10 10 10 10 10 11 11 11 11 12 12 12 12 12 12 12 12
2 2 2 2 2 2 2 1 1 1 1 1 2 2 3 3 3 4 4 4 4 4 4 5 6 6 6 7 7 7 7 7 8 9 9 9 9 9 9 10 10 10 10 10 10 11 11 11 11 11 11 11 11 10 10 9 8 7 7 11 15 16 15 12 9 7 6 6 6 6 7 7 7 7 7 7 8 8 8 9 9 9 9 9 9 9 9 9 9 9 10 10 10 10 11 11 11 11 11 11 12 12 12
3 3 3 3 2 2 2 2 2 1 1 1 2 2 2 3 3 4 4 4 4 4 4 5 6 6 6 6 6 6 6 7 8 9 9 9 9 9 10 10 10 10 10 10 11 11 11 11 12 12 11 11 11 10 10 9 8 8 9 10 12 14 13 9 7 5 5 6 6 7 7 7 7 7 7 7 7 8 8 8 8 8 8 8 8 8 9 9 9 9 9 9 10 10 10 10 10 10 11 11 11 11 11
3 3 3 3 3 2 2 2 2 1 0 1 2 2 2 2 3 4 4 4 4 4 4 5 6 6 6 6 6 6 6 7 8 8 9 9 9 10 10 10 10 10 10 11 11 11 12 12 12 12 11 11 10 10 9 8 8 8 8 9 10 11 10 7 5 5 5 6 7 8 8 8 8 8 8 7 7 7 7 8 8 8 8 8 8 8 8 8 8 8 8 9 9 9 9 10 10 10 10 10 10 11 11
4 3 3 3 3 2 2 2 2 1 0 1 2 2 2 2 3 4 3 3 4 4 5 6 6 6 6 6 6 6 7 8 8 8 8 9 9 10 10 10 10 11 11 11 11 12 12 12 12 11 11 11 10 9 8 7 7 7 7 7 7 7 7 6 5 6 7 8 8 9 10 10 10 9 9 8 8 7 7 7 7 7 7 7 7 7 8 8 8 8 8 8 9 9 9 9 9 9 10 10 10 10 11
4 4 3 3 3 3 2 2 1 1 0 1 2 2 2 2 3 4 3 3 4 5 6 7 6 6 6 6 6 7 8 8 8 8 9 9 10 10 10 11 11 11 11 11 12 12 12 12 11 11 11 10 9 8 8 7 7 7 6 6 5 5 4 4 4 6 8 10 11 11 12 12 11 11 10 9 9 8 8 8 7 7 7 7 7 7 8 8 8 8 8 8 9 9 9 9 9 9 10 10 10 11 11
5 4 4 4 3 3 3 2 1 1 1 2 2 3 2 2 3 4 4 3 4 5 7 7 7 7 6 6 7 8 8 8 9 9 9 10 10 11 11 12 11 11 11 11 12 12 12 11 11 11 10 10 9 8 7 7 6 6 5 5 4 3 2 2 3 4 7 9 11 13 14 13 12 11 11 10 10 10 10 9 9 9 8 8 7 8 8 8 8 9 9 9 9 9 9 9 10 10 10 11 11 11 12
5 5 4 4 4 3 3 2 2 1 1 1 2 3 3 2 3 4 4 4 4 6 8 8 8 7 7 7 8 8 9 9 9 9 10 11 11 12 12 12 12 12 11 11 11 11 11 11 11 10 9 9 8 7 7 6 6 5 5 4 3 2 2 2 3 4 5 6 9 12 14 14 13 11 11 10 11 11 11 11 11 11 10 10 10 9 9 9 9 9 10 10 10 10 10 10 10 11 11 11 12 12 13
5 5 5 4 4 4 3 3 2 1 1 1 2 3 3 3 3 4 4 4 4 6 8 9 8 8 8 9 9 9 9 9 9 9 10 12 13 13 13 12 12 12 11 11 11 11 11 10 10 9 9 8 7 6 6 5 5 4 4 3 2 2 2 3 5 6 6 7 8 11 13 14 13 11 10 11 11 11 12 12 12 12 12 12 12 11 11 11 11 11 11 11 11 11 11 11 12 12 12 13 13 13 14
6 5 5 5 4 4 4 3 2 1 1 1 2 3 3 2 3 4 5 5 5 6 7 8 8 8 9 9 9 9 9 9 9 10 11 13 14 14 14 13 12 11 11 11 11 11 10 10 10 9 8 7 6 6 5 5 4 4 3 3 2 3 4 6 7 8 9 10 11 11 12 13 13 12 12 12 12 12 13 13 13 13 13 13 13 13 13 13 13 12 12 12 12 12 12 13 13 13 13 14 14 14 15
6 6 5 5 5 4 4 3 2 1 1 1 2 2 2 3 4 5 6 6 5 5 5 7 8 9 9 9 9 9 9 9 9 10 12 14 14 14 13 12 12 11 11 11 10 10 10 10 9 8 8 7 6 5 5 4 4 3 3 3 3 3 6 8 10 11 12 13 13 12 12 13 14 15 14 14 14 14 14 14 14 14 14 14 14 14 14 14 14 14 14 14 14 14 14 14 14 14 14 15 15 15 15
7 6 6 5 5 5 4 4 3 2 1 1 2 2 2 3 5 7 7 8 7 5 5 6 8 10 10 9 9 9 9 9 10 11 13 15 15 14 13 12 12 11 11 11 10 10 10 9 9 8 7 7 6 5 4 3 3 3 2 3 3 4 6 9 11 13 14 15 14 12 12 13 15 16 17 17 16 16 16 15 15 15 16 16 16 16 16 16 16 16 16 16 16 16 15 15 15 15 15 15 15 15 16
7 6 6 6 5 5 5 4 3 2 1 1 2 1 1 3 4 6 7 8 8 6 5 6 8 10 11 9 9 8 8 9 10 12 14 15 15 14 12 12 11 11 11 11 10 9 9 9 9 8 7 6 5 4 4 3 2 2 3 4 5 6 8 10 12 13 13 13 13 12 12 14 16 17 17 17 16 16 15 16 16 18 19 19 19 18 18 17 17 17 17 17 16 16 16 16 16 15 15 15 15 16 16
7 6 6 6 5 5 5 5 4 2 0 2 2 1 1 2 3 4 5 7 6 5 6 6 8 9 10 9 8 8 7 8 10 12 15 15 14 13 12 11 11 12 12 11 10 9 8 9 9 8 6 5 5 4 3 2 3 4 5 6 7 8 9 11 11 11 10 10 10 10 11 14 15 16 15 14 14 13 13 13 15 17 19 19 19 19 18 18 18 17 17 17 16 16 15 15 15 15 15 15 15 16 16
7 7 6 6 6 6 6 5 3 1 1 2 2 1 1 1 2 3 4 5 5 5 6 7 8 8 9 9 8 7 6 7 9 13 15 14 14 13 12 12 12 13 13 12 10 9 8 8 8 7 6 5 4 4 3 3 4 6 7 8 8 9 10 11 11 9 8 8 8 9 11 13 14 14 13 13 12 12 12 12 13 15 16 16 16 17 17 17 17 17 16 16 15 15 14 14 14 14 14 15 15 15 16
7 7 7 6 6 6 6 5 3 1 1 2 1 1 1 1 2 3 4 5 6 6 7 9 9 8 8 9 8 7 6 7 10 13 15 14 13 12 12 12 13 13 13 11 10 8 7 6 6 6 5 4 4 4 4 5 6 7 8 8 8 9 9 10 9 8 8 7 8 9 12 13 14 13 13 12 13 13 13 13 14 13 13 14 14 15 15 16 16 15 15 14 14 13 13 13 14 14 14 15 15 15 15
7 7 7 7 7 7 6 5 3 1 1 1 0 1 1 2 3 4 6 7 7 7 8 8 8 8 8 9 8 7 6 7 10 14 14 13 12 12 12 13 13 13 12 10 9 8 7 6 5 5 5 4 4 5 6 7 8 8 8 8 8 8 8 9 8 8 7 7 8 10 13 14 14 13 13 13 14 14 14 14 14 14 14 14 14 15 15 15 14 14 13 13 12 12 13 13 14 14 15 15 15 15 15
8 8 7 7 7 7 6 5 3 1 1 1 1 1 2 4 5 6 6 7 7 7 8 7 7 7 8 9 8 7 6 8 11 13 12 12 13 14 14 14 13 12 11 9 8 7 6 6 5 4 4 4 5 6 7 8 8 8 8 8 8 8 8 8 9 8 8 8 10 12 14 14 13 13 13 14 14 15 15 15 15 15 15 15 15 15 14 14 13 13 12 12 12 12 13 13 14 14 14 14 14 14 14
8 8 8 8 8 8 7 5 4 2 2 2 3 4 5 6 6 6 5 5 6 7 7 6 6 7 7 8 8 7 6 8 11 12 11 11 12 13 13 14 13 12 10 10 9 7 6 5 4 4 4 4 6 7 9 9 9 8 8 8 7 8 8 9 9 9 9 10 11 12 13 12 12 13 14 15 15 15 15 15 15 15 15 15 15 14 14 13 13 12 12 12 12 13 13 14 14 13 13 13 13 14 14
9 9 9 9 9 8 7 6 4 3 3 3 3 5 6 6 6 5 5 4 5 6 6 7 7 7 7 7 7 7 6 7 10 11 9 10 11 11 9 11 12 11 11 12 10 6 5 4 4 3 3 5 7 9 10 9 9 8 8 7 7 8 9 9 9 9 9 10 10 11 11 12 13 14 15 15 15 16 16 16 16 16 16 15 15 14 14 14 13 13 13 13 13 14 13 13 13 12 12 13 13 14 15
9 9 10 10 9 8 7 6 5 4 3 3 3 4 5 5 4 5 5 5 5 6 6 6 6 7 7 7 7 7 6 7 8 8 7 9 10 11 11 10 7 5 5 10 9 4 4 6 6 3 3 8 11 12 10 9 8 8 8 7 7 8 9 10 10 9 9 10 10 10 11 12 13 14 15 15 15 16 16 16 16 16 15 15 15 15 14 14 14 14 14 14 14 14 13 12 11 11 12 13 14 15 15
10 10 10 10 10 9 8 7 5 4 2 1 1 2 3 3 2 3 5 5 5 5 6 5 6 6 7 7 7 8 8 7 7 6 6 7 10 11 10 6 4 4 5 5 4 2 1 2 1 5 11 14 14 11 9 8 8 8 7 7 7 8 9 10 10 9 9 10 10 11 12 13 14 14 14 15 15 15 16 15 15 15 16 15 15 15 15 14 14 15 15 14 14 13 12 11 11 11 12 13 14 16 16
10 11 11 11 11 10 8 7 5 4 2 1 1 1 1 1 1 2 3 3 4 5 5 5 5 6 6 7 7 8 8 7 6 5 5 6 7 7 5 3 2 4 6 4 4 3 2 5 10 16 18 15 12 9 8 8 8 8 8 7 8 9 10 10 9 9 9 10 11 12 12 13 13 14 14 14 15 15 15 15 15 16 16 16 16 15 15 15 15 15 15 14 13 12 11 11 11 12 13 14 15 16 17
11 12 12 12 12 10 8 7 5 4 3 2 1 1 2 2 2 3 4 4 4 4 4 5 5 5 5 6 7 8 8 7 6 5 4 5 5 5 3 3 3 4 5 3 2 2 3 8 13 15 14 11 9 8 8 9 9 9 9 9 9 10 10 10 10 10 10 11 12 12 12 13 13 13 13 14 14 14 15 15 15 16 16 16 16 15 15 15 15 15 14 13 13 12 12 12 13 13 14 15 16 16 17
13 13 13 13 12 10 8 6 5 4 3 2 2 2 3 3 4 4 4 4 4 4 4 5 4 4 4 5 6 7 8 7 5 4 4 4 4 4 3 3 2 3 3 3 2 3 4 10 12 10 9 8 9 9 10 10 10 10 10 10 10 10 10 10 10 10 11 12 12 13 12 13 13 13 13 13 13 14 14 15 15 16 16 16 16 16 15 15 15 14 14 14 13 13 13 13 14 15 15 16 16 17 17
14 15 15 14 12 10 8 7 5 4 3 3 3 3 4 4 4 4 3 3 3 4 5 5 4 3 4 5 6 6 6 6 6 5 5 5 4 3 2 2 2 1 2 2 2 4 7 11 7 3 6 10 10 10 10 10 10 10 10 10 10 10 11 11 11 11 12 13 13 13 13 12 12 12 12 13 13 14 14 14 15 15 15 16 16 16 15 15 15 15 14 14 14 14 14 14 15 15 15 16 16 17 18
15 16 15 14 12 10 9 7 6 4 4 3 3 4 4 4 3 2 2 1 3 5 6 5 4 3 4 6 6 5 5 6 6 6 6 5 4 2 2 2 3 4 5 4 5 6 8 8 5 4 6 10 11 10 9 9 10 10 10 10 10 11 11 12 13 13 13 13 13 12 12 12 12 12 12 13 13 13 14 14 14 15 15 15 15 15 15 15 15 15 15 15 15 15 15 15 15 15 15 16 17 18 19
16 17 16 14 12 10 9 7 6 5 4 3 3 3 3 2 2 3 3 3 4 5 6 5 4 4 5 6 5 5 5 5 6 6 6 5 3 2 2 3 4 5 6 7 8 8 7 4 3 3 5 6 9 11 10 9 9 10 10 10 10 11 12 13 13 14 14 13 13 12 12 12 12 12 12 13 13 13 14 14 14 14 15 15 15 15 15 15 15 15 15 15 15 15 15 15 15 15 16 17 18 19 19
17 17 16 14 12 10 9 7 6 5 4 3 3 2 2 3 4 4 4 4 5 6 6 5 5 5 5 5 5 4 4 5 5 5 5 5 4 4 4 5 6 6 7 7 8 8 9 8 6 4 3 4 6 7 9 10 10 10 10 10 11 12 13 13 13 13 13 12 12 12 13 13 13 12 12 13 13 14 14 15 15 15 15 14 14 14 14 14 15 15 15 15 14 14 14 14 15 16 17 18 19 20 20
18 17 16 14 12 10 9 7 6 5 4 3 3 2 3 3 4 3 3 3 4 6 6 6 6 5 5 5 5 4 4 4 4 4 4 4 5 6 6 6 6 7 7 7 8 8 8 9 9 9 6 4 4 5 6 8 10 11 11 10 11 13 14 13 13 12 12 12 12 12 13 13 13 13 13 14 14 15 15 15 15 15 14 14 14 14 14 14 14 14 14 14 13 14 14 15 16 17 18 19 20 21 22
Wind_Direction
89 87 86 83 81 79 78 77 77 76 75 74 73 71 69 68 67 66 65 64 62 61 59 58 56 55 54 53 52 51 51 50 49 48 46 43 41 39 38 43 49 55 59 61 61 59 52 39 32 38 41 43 45 45 44 42 40 39 38 38 39 40 41 45 33 20 15 15 16 17 17 17 17 18 19 19 17 16 14 13 12 11 11 10 9 9 9 8 8 8 9 9 10 12 14 16 17 18 18 19 20 21 21
90 88 87 84 81 80 80 79 78 77 75 74 73 71 68 67 66 64 63 62 60 59 58 56 55 54 52 51 50 48 47 47 46 45 43 40 39 36 32 33 39 47 51 54 54 51 44 31 24 29 33 36 37 38 38 37 35 35 35 33 32 35 44 45 33 20 13 13 13 13 13 14 15 15 14 14 14 12 10 9 8 8 6 6 6 5 4 4 3 2 2 2 1 2 4 6 8 10 11 11 13 14 15
91 89 87 85 83 82 81 80 79 77 76 74 71 69 67 64 63 61 59 57 55 54 53 52 51 50 49 48 47 46 44 43 42 41 38 35 35 33 26 25 29 37 44 50 51 45 33 19 13 17 21 24 26 29 28 28 27 29 30 31 23 18 31 39 29 17 9 10 10 9 10 11 11 11 11 10 9 7 6 4 3 2 1 0 360 360 359 359 359 358 357 356 355 355 355 357 359 360 360 1 2 4 6
92 90 88 86 84 83 81 80 78 77 74 72 69 66 63 61 59 57 55 52 50 48 47 45 44 44 44 44 43 42 40 40 38 36 33 30 29 28 23 19 20 25 34 44 51 44 23 6 2 8 11 11 13 15 17 16 17 18 22 25 14 360 355 24 22 13 5 5 5 5 5 6 7 7 7 7 6 4 2 0 359 357 356 355 353 353 353 353 353 353 353 352 352 351 351 350 350 350 350 350 351 353 355
95 92 89 87 85 83 81 80 78 75 73 70 66 63 60 57 55 53 51 48 46 43 41 39 37 37 40 39 37 36 35 35 33 31 29 26 25 22 19 14 12 14 21 29 43 42 23 3 356 359 1 1 0 1 4 5 6 9 11 14 5 349 334 359 9 5 359 358 358 357 358 359 0 1 2 1 360 359 358 357 356 356 354 351 349 347 345 345 346 346 347 347 346 346 345 345 344 343 343 342 342 343 344
97 94 91 88 85 83 81 79 76 74 70 67 63 60 57 54 50 48 48 46 43 40 38 34 32 33 36 36 34 33 31 30 29 28 26 24 20 17 14 10 7 6 10 13 20 24 20 0 351 350 352 352 352 352 352 353 356 359 1 3 357 344 326 341 358 359 354 350 350 350 350 351 353 354 354 353 352 352 351 352 352 353 352 350 347 344 341 338 338 338 338 339 339 340 340 340 339 339 338 337 337 336 335
100 97 94 90 88 85 82 79 76 72 68 64 60 57 54 51 46 43 44 44 42 40 37 32 30 32 38 39 39 36 33 30 27 24 21 18 16 12 8 7 3 2 4 7 6 5 7 355 347 343 343 343 343 343 344 343 346 351 354 355 350 339 323 331 347 351 347 344 343 342 342 343 345 346 346 346 345 344 343 344 345 346 346 346 346 343 340 336 333 331 330 330 331 332 333 334 334 334 333 332 331 331 330
103 102 99 95 92 88 85 82 77 73 67 63 58 54 51 49 46 44 42 42 41 39 38 35 30 33 41 41 40 38 35 30 25 21 17 13 10 7 3 1 359 360 3 4 3 2 3 357 346 339 338 338 337 338 339 337 340 344 348 351 344 332 320 328 340 344 341 339 337 335 335 335 337 338 339 340 340 339 338 337 338 338 339 340 340 340 339 336 332 329 326 324 323 323 325 326 328 328 327 327 326 326 326
104 106 106 103 97 92 87 84 80 74 68 63 57 52 48 45 43 43 41 41 37 35 39 38 33 33 42 40 37 35 34 28 22 17 12 8 5 1 356 354 356 359 1 1 360 1 4 3 347 335 335 333 333 335 337 336 338 341 342 346 337 325 318 326 336 338 336 334 332 330 328 328 329 330 331 332 333 332 331 331 331 331 332 333 332 332 332 332 331 328 324 321 319 317 316 317 319 321 322 321 321 321 321
103 105 106 106 103 98 91 86 82 76 69 62 57 53 47 41 38 36 33 36 32 27 30 35 31 26 31 30 26 23 22 19 15 9 3 359 356 353 350 350 352 354 354 353 353 357 2 360 342 329 332 331 332 334 336 334 336 338 337 337 326 317 318 327 333 334 332 329 328 326 325 324 324 324 325 326 326 326 324 324 325 325 326 326 326 326 325 325 325 325 323 321 318 315 313 311 311 313 314 314 315 315 316
102 102 101 102 102 101 95 89 86 82 75 63 55 50 45 38 33 30 27 30 28 22 17 23 23 16 10 16 14 9 8 4 0 356 352 347 344 342 342 342 343 343 343 344 346 353 359 348 332 325 330 331 332 332 333 332 332 334 333 326 317 314 320 329 332 330 328 325 324 324 323 321 319 319 320 321 320 319 318 318 319 320 320 321 320 320 320 319 319 318 318 318 317 314 311 309 307 306 306 307 307 308 309
105 101 97 95 96 97 95 90 85 83 78 71 59 49 42 33 26 21 18 20 21 14 5 7 8 4 0 3 0 354 351 349 348 346 344 340 335 332 331 330 331 332 334 338 343 348 349 334 323 324 327 328 329 328 328 327 327 329 328 318 313 315 321 329 330 326 324 322 322 322 320 318 316 316 317 316 316 315 314 313 313 314 314 315 315 315 315 313 313 313 314 314 313 312 311 308 306 304 302 302 302 303 303
107 101 103 104 97 93 93 83 61 47 49 55 53 46 36 26 17 10 5 4 4 359 349 349 352 350 344 345 345 341 337 335 335 335 336 335 332 329 326 324 325 326 329 336 341 339 330 319 317 321 324 325 324 323 322 321 320 321 317 309 311 316 321 327 326 324 321 321 320 319 318 316 315 314 314 313 312 312 311 309 309 309 309 310 310 310 310 310 308 308 308 309 309 309 308 307 306 303 301 299 298 298 299
109 107 121 126 106 90 91 73 44 27 24 26 28 28 28 13 2 359 356 351 351 347 336 334 339 339 331 331 332 331 327 326 324 324 328 332 332 330 327 326 326 327 330 335 333 323 312 313 316 319 319 319 318 316 315 314 314 310 305 305 311 317 321 324 323 320 319 319 318 317 315 315 313 312 312 312 310 308 307 306 305 305 304 304 305 306 306 306 306 305 305 305 305 305 305 304 304 303 301 299 297 296 296
126 138 161 155 115 93 91 76 47 26 16 6 2 5 15 2 347 341 340 342 341 335 325 329 335 336 328 324 322 323 324 320 315 312 319 326 329 330 330 331 332 333 333 330 321 312 310 313 315 315 314 314 313 311 309 309 307 300 295 305 312 318 320 322 321 319 318 317 317 316 314 313 312 310 309 309 308 306 304 303 302 301 300 301 301 301 301 302 302 302 302 302 302 302 302 301 301 301 300 300 298 297 295
148 169 186 179 145 110 97 77 44 15 354 343 343 348 353 345 334 328 326 330 327 321 318 326 331 331 326 322 322 324 325 319 310 305 313 321 324 326 329 333 337 339 334 322 313 311 313 314 314 313 312 311 309 308 306 305 299 292 293 305 314 318 320 320 319 318 317 316 316 315 313 314 313 312 309 307 306 304 302 301 300 299 298 298 298 298 298 298 299 299 299 299 299 298 299 298 298 298 298 298 298 297 296
151 168 178 178 176 185 359 360 355 348 340 336 338 337 332 321 313 313 313 314 312 309 311 317 321 323 322 323 326 327 322 320 311 305 311 317 320 323 328 333 339 340 329 319 315 315 315 315 315 313 311 309 308 306 304 303 293 288 294 306 314 318 319 318 317 316 316 316 316 315 313 314 314 312 311 308 305 304 303 301 299 298 297 296 295 296 296 296 296 296 296 296 296 296 297 296 296 295 295 295 295 296 296
149 148 164 181 302 325 337 344 348 346 342 339 338 334 324 308 297 295 302 303 304 306 310 313 316 317 318 327 329 324 316 318 317 312 312 312 315 320 327 332 335 331 323 319 317 317 317 316 315 313 310 308 306 304 303 301 289 285 294 306 314 318 318 316 314 313 314 315 315 314 314 314 313 311 309 308 307 305 304 302 300 298 297 295 294 294 294 294 295 295 294 294 294 294 295 295 294 294 294 293 294 294 295
167 256 306 316 320 327 334 344 350 350 344 341 338 333 322 308 297 298 310 312 312 313 317 320 319 317 319 329 326 318 316 317 318 318 315 315 315 319 325 327 323 319 318 318 318 317 317 315 313 311 309 307 305 304 303 299 287 285 295 306 314 317 317 314 312 312 313 313 313 314 314 314 312 311 310 309 308 307 305 303 301 300 298 296 294 294 294 294 294 294 293 293 293 293 293 293 293 292 292 292 292 292 293
232 262 285 299 310 321 327 342 354 353 343 339 337 333 320 308 304 314 326 326 323 322 325 329 327 321 316 321 319 316 319 319 320 320 320 321 320 320 322 320 316 314 314 314 315 315 314 313 310 308 307 306 304 303 303 298 288 287 296 305 313 316 315 312 310 310 311 312 312 313 313 312 312 312 311 310 309 308 306 303 302 300 299 297 296 294 294 294 294 293 293 293 293 293 292 292 291 291 292 291 291 291 291
222 228 243 275 294 307 310 323 343 342 333 331 334 331 311 296 295 314 336 336 330 323 321 323 322 317 312 317 319 320 322 323 325 324 323 322 321 321 320 318 315 312 311 311 312 313 311 309 307 306 306 306 305 304 303 297 289 288 295 305 312 315 314 311 309 310 310 310 310 311 311 311 311 311 310 309 308 307 305 303 302 301 299 298 297 295 294 294 294 294 293 294 294 293 292 291 290 290 291 290 290 290 289
218 218 225 246 254 235 238 285 319 325 321 323 328 328 312 304 301 317 338 333 325 317 312 313 315 317 321 325 326 326 327 328 328 326 323 321 320 319 318 316 313 311 310 311 311 311 310 308 306 305 304 305 304 303 303 293 288 289 296 305 312 314 313 311 309 309 309 309 309 309 309 309 310 310 309 308 308 306 304 303 303 301 299 298 297 296 295 294 294 294 294 294 293 293 292 291 291 290 290 290 290 290 290
228 231 237 255 335 334 292 294 309 320 320 321 322 321 321 324 323 322 324 321 320 318 318 319 323 330 331 330 330 330 330 330 328 326 323 321 320 318 317 315 314 313 312 312 311 310 309 308 306 304 303 303 303 303 302 294 290 291 297 306 312 315 314 311 309 308 307 307 308 308 308 308 308 308 308 308 307 306 305 304 303 301 300 299 297 297 296 295 295 295 294 294 294 293 293 292 292 292 291 291 291 290 290
235 253 311 343 340 316 297 297 304 313 312 317 321 320 319 323 327 327 323 323 323 326 329 332 335 335 333 332 333 333 331 329 327 325 324 322 320 319 318 316 315 315 313 313 312 310 309 307 306 305 303 303 303 302 301 295 291 293 299 307 313 315 314 312 310 308 306 306 306 306 306 307 307 307 307 307 307 306 305 304 303 301 300 299 298 297 297 296 296 295 295 295 295 294 294 294 294 294 293 292 292 292 291
226 300 323 320 305 289 280 287 294 297 298 315 324 323 320 324 328 329 328 327 329 331 334 336 336 335 334 335 334 332 330 328 327 326 325 323 322 320 318 317 317 317 315 314 313 311 309 307 306 305 304 304 303 302 302 296 292 294 301 308 314 316 315 313 310 309 307 306 306 306 307 308 308 308 307 307 306 305 305 304 302 300 300 299 299 299 298 297 296 295 295 295 295 295 295 295 295 294 292 292 293 293 292
187 316 308 308 302 291 279 269 261 268 291 315 322 320 320 325 329 329 330 333 334 334 334 335 335 336 336 336 334 332 330 329 329 328 327 325 322 320 319 318 318 318 317 315 313 311 309 307 306 305 305 305 304 303 301 297 294 296 302 310 315 317 317 314 312 310 309 309 308 308 309 309 309 308 307 306 306 305 304 303 302 300 299 298 298 298 298 298 296 295 295 294 294 295 295 295 295 295 293 293 293 293 293
262 294 304 313 325 333 269 214 217 248 290 309 313 315 319 328 333 335 337 337 336 335 335 335 337 337 338 336 334 332 331 331 331 330 328 326 323 321 319 318 319 319 318 317 314 312 310 308 307 306 306 305 304 302 301 297 293 295 303 310 316 319 319 316 314 313 312 312 312 311 311 310 309 308 307 306 306 305 304 303 302 301 299 298 297 297 297 296 295 294 293 294 293 293 293 294 294 294 294 294 293 293 293
282 299 309 317 360 119 168 175 179 217 299 307 309 314 325 336 340 342 340 339 338 337 337 338 339 339 337 335 333 332 332 333 332 331 329 327 324 321 319 318 319 319 319 318 315 313 311 310 308 307 307 306 304 302 300 297 293 295 302 310 316 319 320 319 317 316 315 315 314 313 311 311 308 308 308 308 307 306 305 305 304 302 301 299 299 298 297 295 294 294 293 293 292 292 292 292 292 293 293 293 294 294 293
279 297 294 195 175 164 160 160 157 183 305 310 311 318 339 345 344 341 338 338 338 339 339 340 340 339 337 334 332 331 333 333 331 330 329 327 324 321 319 318 319 319 319 318 316 314 312 311 309 309 308 306 304 302 300 298 295 295 300 308 314 318 320 321 320 319 318 318 317 315 314 312 310 309 310 312 311 310 309 308 308 306 304 303 302 301 299 297 295 295 294 293 292 292 292 292 291 291 292 293 293 294 293
239 217 177 173 162 149 144 143 153 205 309 321 321 331 347 349 345 340 338 338 339 339 340 341 341 339 337 333 332 332 332 331 330 328 328 326 325 323 321 319 319 318 318 317 315 313 310 309 309 309 308 307 305 303 301 300 296 295 297 305 311 316 320 322 323 322 321 321 320 320 320 319 318 317 317 318 318 316 314 313 311 309 307 307 306 304 302 300 299 297 296 294 294 294 295 294 294 293 292 293 293 293 294
218 182 160 157 153 146 140 152 173 181 19 333 332 337 346 346 342 340 339 339 340 342 343 342 340 338 336 334 332 330 329 329 330 329 328 325 324 323 323 321 320 318 318 316 314 311 309 308 308 307 306 305 304 303 302 301 299 297 297 302 308 314 320 324 325 325 325 326 328 331 331 331 329 328 326 325 324 322 320 318 315 313 312 311 308 306 305 304 303 300 298 297 296 296 296 295 294 293 292 294 295 296 296
207 157 146 152 160 159 153 178 189 169 99 350 340 340 343 342 342 341 339 338 339 340 341 341 339 337 336 334 332 328 327 329 329 329 327 325 324 323 324 322 320 318 316 314 312 310 309 307 306 305 304 303 303 302 303 302 301 300 299 301 306 313 321 326 328 330 332 336 341 344 346 344 341 337 334 332 330 329 326 325 321 318 316 315 313 311 309 308 307 305 302 301 299 299 298 297 297 296 295 295 296 298 299
191 165 160 169 173 171 175 184 174 146 96 9 347 340 341 342 341 340 339 339 336 335 336 339 338 336 336 335 331 327 327 328 328 327 325 324 323 322 322 321 320 318 316 313 312 311 309 306 304 303 303 302 301 302 302 302 301 299 296 299 305 313 323 329 333 338 344 350 354 354 353 352 349 345 341 339 337 336 334 331 329 326 322 321 319 317 314 312 310 308 306 304 303 303 302 301 299 298 298 296 296 297 299
182 180 175 177 174 177 186 177 153 133 87 360 346 341 338 338 339 339 340 337 335 336 337 338 337 335 335 334 331 328 327 328 327 325 323 322 322 322 320 319 318 317 315 313 312 311 309 306 304 303 302 302 302 302 302 301 299 295 293 297 305 314 326 333 341 350 358 0 359 355 352 349 347 345 343 341 340 340 340 338 335 333 331 328 326 323 321 318 316 313 310 308 306 305 305 304 302 300 298 298 297 297 298
178 178 174 171 172 176 180 149 133 121 52 342 339 340 337 336 339 340 341 342 341 341 341 338 335 333 332 332 331 330 330 330 328 326 324 324 323 322 319 318 317 315 314 313 311 310 309 307 305 304 303 303 304 304 303 302 299 298 299 300 306 315 329 340 350 356 358 356 353 348 345 341 338 335 334 335 336 337 338 340 339 338 336 333 331 328 325 322 320 317 316 313 311 310 308 308 306 304 303 302 301 299 299
176 176 174 174 177 173 162 137 122 114 16 337 339 342 342 341 346 347 346 346 347 348 344 338 334 331 331 332 333 333 331 331 330 329 328 327 326 323 321 319 317 315 312 311 311 310 309 307 306 305 305 305 305 305 304 303 302 301 301 302 306 315 330 343 347 345 341 340 338 338 337 333 330 325 323 323 323 325 328 331 334 334 335 335 333 330 328 326 324 322 320 319 317 314 313 311 309 308 307 305 303 302 301
179 179 178 180 180 175 163 153 149 155 309 316 337 350 355 349 353 357 351 350 351 351 347 343 337 331 330 331 333 333 332 331 331 331 330 329 328 326 324 321 318 314 311 310 309 309 309 308 307 307 306 306 306 306 305 304 302 301 300 300 302 308 322 335 334 330 327 328 328 328 329 328 325 320 316 313 312 313 314 316 319 321 324 328 329 330 329 328 326 325 323 320 318 316 316 313 311 311 309 307 307 306 304
184 182 179 182 179 172 164 165 180 233 281 309 341 2 16 357 357 360 357 353 349 349 352 349 343 336 331 332 333 332 330 330 330 330 329 329 329 327 324 322 318 315 312 310 309 309 308 308 308 308 308 308 307 306 305 305 304 302 300 298 297 296 301 317 319 316 319 323 323 322 323 324 322 319 314 310 308 307 306 307 307 308 309 312 316 320 322 323 323 323 322 320 318 316 315 312 310 310 310 308 307 306 305
185 182 177 178 175 168 161 174 204 257 297 320 349 9 26 12 358 357 355 351 343 343 349 351 349 343 340 337 334 332 331 330 330 330 330 329 327 325 322 320 317 314 312 311 310 310 308 309 309 310 310 310 309 307 306 304 303 304 302 297 288 285 291 310 324 325 322 320 318 317 318 320 321 318 314 310 308 306 305 304 304 303 303 304 304 305 306 309 313 316 317 316 314 312 312 309 308 308 307 305 304 303 302
187 181 174 174 170 168 171 194 214 245 306 326 354 10 26 21 3 355 352 348 338 335 340 350 353 349 345 340 335 333 332 332 332 331 330 329 326 323 321 319 316 314 312 312 313 312 311 311 311 312 313 313 311 307 304 303 303 304 302 294 286 281 285 300 317 326 323 315 310 310 313 317 319 318 314 311 309 307 305 304 303 302 302 301 300 299 299 299 301 304 307 309 308 308 307 306 305 305 302 301 300 300 299
186 179 173 171 168 173 187 199 214 237 296 334 357 10 24 14 3 358 354 349 340 332 331 343 350 349 343 339 335 333 332 333 333 333 331 328 325 321 319 318 316 314 313 314 314 314 315 314 314 313 314 313 310 306 301 301 301 302 297 289 284 282 286 298 311 320 318 313 311 310 312 316 319 320 317 314 311 309 306 304 302 301 300 300 299 299 297 296 296 296 298 299 301 301 301 302 302 301 299 298 297 297 296
184 178 171 168 173 181 189 199 215 238 281 338 360 7 9 350 350 355 358 354 346 335 327 332 340 344 341 337 334 332 332 333 335 334 332 328 324 320 318 317 315 314 314 314 314 315 316 316 316 314 313 310 307 302 299 299 299 298 293 287 284 286 293 303 311 315 315 316 318 319 317 320 323 325 324 322 319 316 313 309 306 303 301 301 300 300 298 297 296 295 294 294 294 295 296 297 298 298 298 297 296 295 295
183 175 169 167 177 190 196 206 221 238 268 342 1 1 348 336 341 349 354 358 357 347 332 326 331 337 340 336 333 331 332 333 335 334 332 328 325 321 317 315 314 314 313 312 312 314 316 317 316 313 310 307 304 301 299 299 301 301 297 295 295 296 299 306 311 314 317 321 326 327 324 325 328 330 330 330 328 326 323 318 314 311 309 308 307 305 303 302 301 299 298 297 295 294 294 295 296 297 297 297 297 296 295
179 173 167 166 180 198 208 216 227 239 272 4 8 354 329 330 340 346 349 357 360 356 341 333 331 333 336 333 330 330 331 333 334 333 332 329 325 321 317 314 313 313 312 310 307 309 313 316 315 311 306 303 301 300 300 301 307 310 307 304 304 302 301 306 311 315 319 324 329 330 326 327 329 332 334 333 332 329 326 323 319 318 317 317 315 314 312 310 308 306 305 303 301 299 298 297 297 298 298 299 298 297 297
174 169 165 170 186 203 214 223 231 244 331 20 17 338 293 320 338 345 346 351 354 352 343 338 334 332 331 327 323 323 326 330 332 332 331 328 324 319 317 315 315 314 311 305 301 300 306 313 313 310 303 299 298 299 301 304 309 310 309 306 305 302 301 304 309 314 316 322 326 326 323 326 329 331 331 329 326 323 320 317 316 316 318 319 319 318 317 315 313 312 311 309 307 306 304 303 302 302 302 301 300 299 298
170 168 167 174 189 205 215 224 234 254 3 22 21 332 266 306 340 345 345 343 343 341 338 335 334 333 332 325 320 317 321 329 333 333 331 326 322 319 318 318 316 313 309 302 294 290 295 307 311 307 299 295 293 294 298 304 309 310 310 307 305 302 300 304 309 312 312 318 320 319 320 324 326 326 325 322 319 316 313 310 310 310 312 314 315 314 313 313 313 313 312 311 310 309 309 308 308 307 306 304 303 302 301
172 172 173 177 189 203 214 223 231 255 24 36 19 282 302 327 343 342 337 336 337 336 333 332 333 334 335 333 329 325 328 336 339 336 332 326 323 322 322 320 317 312 306 298 288 279 280 295 302 300 293 289 286 289 298 305 309 311 310 308 306 304 304 308 310 311 311 316 318 318 318 321 322 322 321 320 318 316 314 311 310 309 308 308 307 307 307 307 308 309 309 309 309 310 311 312 312 311 309 307 306 305 304
175 176 176 178 187 201 212 219 225 235 49 60 275 287 329 331 325 324 327 333 338 339 336 336 335 336 337 338 338 338 340 344 343 338 332 328 328 330 328 324 319 314 308 302 289 274 264 275 286 288 285 282 284 289 299 305 308 308 307 307 307 307 309 311 310 309 309 312 314 315 317 320 321 321 320 319 318 317 315 314 313 311 310 308 307 306 306 307 307 307 308 308 309 310 312 313 313 312 311 310 309 309 308
178 179 178 178 186 199 209 216 218 202 118 160 202 258 280 300 315 327 335 341 344 345 344 341 336 334 336 337 338 341 344 342 342 341 337 336 336 337 335 332 326 320 316 312 300 279 256 258 267 272 274 276 284 294 300 303 304 304 304 305 305 307 310 311 309 307 307 309 311 313 317 320 320 319 319 318 318 317 316 315 314 313 312 312 311 311 310 310 310 310 309 309 310 311 312 313 314 314 314 314 313 313 312
181 184 183 181 188 197 205 209 209 198 183 208 238 269 292 311 325 338 348 347 346 347 346 342 338 336 335 334 335 338 343 341 345 347 345 347 345 341 337 334 330 327 325 324 313 288 251 242 249 259 265 278 291 300 302 302 301 301 300 301 302 305 309 310 308 306 305 305 308 313 318 319 319 318 317 317 316 316 315 315 314 314 314 314 314 315 314 314 313 312 312 312 311 311 312 313 315 316 317 317 318 317 316
188 189 188 188 190 195 199 203 207 208 214 247 280 303 318 331 339 345 351 349 345 346 349 345 342 339 336 332 332 335 340 341 350 355 351 350 347 340 329 326 327 330 334 333 325 298 236 220 222 233 260 299 308 308 306 304 301 299 297 296 298 302 307 307 306 304 304 305 309 313 316 317 317 316 315 315 314 314 313 313 313 314 314 315 316 316 316 315 315 314 314 313 312 311 311 313 315 318 320 321 321 321 319
194 196 195 193 189 190 196 202 209 220 239 279 307 324 335 345 343 340 345 348 348 349 352 351 345 341 339 337 336 338 340 340 351 358 355 345 339 334 328 325 326 333 340 336 332 309 212 194 193 207 297 320 318 313 308 305 302 299 295 293 294 299 304 305 303 302 302 305 308 312 314 315 315 314 313 313 312 312 312 313 313 314 315 315 316 316 315 315 315 315 315 314 313 312 311 313 315 318 321 322 323 323 321
198 200 200 194 190 192 199 201 208 223 248 291 323 329 334 343 339 336 345 348 350 352 354 354 348 342 340 342 343 343 342 338 345 356 359 349 341 338 339 338 338 339 336 330 324 310 197 131 35 329 325 322 317 312 309 308 306 303 298 295 295 299 302 303 301 300 302 304 308 311 313 312 312 312 311 311 310 311 311 312 313 314 315 315 315 315 314 315 315 316 316 315 314 314 313 314 315 318 320 322 323 323 322
202 202 200 195 195 198 200 202 207 219 239 250 201 197 272 314 321 329 338 342 345 348 350 350 350 347 343 345 345 342 339 336 341 351 1 0 355 350 345 345 332 321 320 317 316 321 344 358 340 327 320 318 315 313 313 314 314 313 310 305 303 303 303 302 301 300 301 304 307 310 310 310 309 308 308 308 308 309 310 311 312 313 314 314 314 313 313 313 314 316 316 316 316 316 315 315 316 317 318 320 321 321 321
205 202 198 198 200 201 202 205 211 222 238 260 247 209 216 244 271 290 305 318 329 337 346 350 352 354 353 347 343 338 334 336 340 349 4 5 7 4 341 326 320 322 325 322 319 326 336 334 325 318 313 318 322 322 319 320 321 320 316 312 308 307 305 304 303 302 302 302 304 306 306 306 306 306 305 305 305 306 308 310 311 312 312 312 312 312 312 313 314 315 316 316 316 316 315 315 316 316 316 317 318 319 320
206 201 199 201 202 202 203 208 216 227 243 267 280 273 261 272 285 300 313 324 329 333 343 352 357 1 1 351 341 335 332 336 340 345 355 354 355 355 344 334 336 342 341 340 334 331 331 328 323 314 310 324 329 325 319 319 320 319 316 312 310 310 309 309 308 306 304 303 303 303 303 304 303 303 302 302 302 303 305 307 309 310 311 311 311 311 311 312 313 314 315 315 315 314 314 314 314 314 314 315 316 317 317
206 201 200 201 201 201 204 210 219 230 248 271 288 297 299 308 315 324 335 337 327 326 336 350 360 1 354 352 344 336 332 332 336 343 345 337 331 327 326 329 332 326 305 314 321 319 316 323 321 301 309 318 320 317 316 317 318 317 315 313 313 314 315 315 313 311 308 306 304 303 303 303 302 301 301 301 301 301 303 305 306 308 309 309 309 309 309 309 310 311 312 312 312 312 312 313 313 314 314 315 315 316 316
206 202 201 200 199 200 205 212 220 233 250 274 293 306 315 324 325 321 319 304 303 317 336 352 360 352 343 350 352 346 333 331 334 336 337 330 319 308 303 295 291 280 269 274 284 297 309 317 315 304 312 314 314 314 318 319 318 317 316 315 315 316 317 317 315 312 309 307 305 305 304 304 303 302 301 301 301 302 303 304 305 306 306 306 305 305 305 306 307 307 307 308 308 309 310 311 312 313 314 314 315 315 316
206 204 201 199 199 201 206 212 222 235 251 273 293 306 316 309 287 282 290 285 298 319 342 354 352 342 343 354 359 353 337 334 333 333 334 332 325 313 316 307 301 290 278 276 279 285 293 300 307 313 317 314 314 316 319 318 317 317 315 314 316 318 318 316 313 311 309 308 307 307 306 306 305 305 304 303 304 304 304 304 304 304 303 302 301 301 301 301 302 303 304 304 305 307 308 310 312 313 313 314 315 315 316
206 203 200 198 199 201 206 212 222 234 248 268 283 287 274 260 276 295 311 312 320 334 348 353 350 346 350 0 7 1 343 332 331 335 338 333 327 322 323 317 308 300 292 286 283 281 279 279 285 298 311 310 311 314 315 315 315 315 312 314 319 321 319 316 313 311 310 310 310 310 309 309 308 308 307 306 305 305 304 303 302 301 300 300 299 298 298 299 299 300 301 302 303 305 307 309 310 311 311 312 314 315 315
205 201 198 198 199 202 206 212 220 231 244 257 264 264 259 268 290 315 336 334 335 343 352 357 357 354 351 356 6 6 352 334 329 334 339 329 319 318 322 319 314 308 302 296 289 283 278 275 276 279 283 290 299 302 305 311 316 318 316 318 322 322 319 315 313 314 314 313 312 311 310 310 310 309 308 306 305 303 302 301 301 300 300 299 299 299 299 299 300 300 301 301 302 304 305 306 307 307 307 308 311 312 313